Weather History for Meadow Lake, CO

Change the Weather History Date:

Thursday, August 15, 2013

  Actual Average (KCOS) Record (KCOS)
Temperature  
Mean Temperature 66 °F 69 °F  
Max Temperature 80 °F 82 °F 93 °F (1937)
Min Temperature 51 °F 56 °F 43 °F (1915)
Degree Days  
Heating Degree Days 0 0  
Month to date heating degree days 0  
Since 1 June heating degree days 89  
Since 1 July heating degree days 10  
Cooling Degree Days 0 4  
Month to date cooling degree days 77  
Year to date cooling degree days 361  
Since 1 June cooling degree days 351  
Growing Degree Days 16 (Base 50)    
Moisture  
Dew Point 44 °F    
Average Humidity 50    
Maximum Humidity 84    
Minimum Humidity 20    
Precipitation  
Precipitation 0.00 in 0.12 in 1.50 in (1944)
Month to date precipitation 1.84  
Year to date precipitation 12.29  
Snow  
Snow 0.00 in 0.00 in 0.00 in (2002)
Month to date snowfall 0.0  
Since 1 June snowfall 0.0  
Since 1 July snowfall 0.0  
Snow Depth -    
Sea Level Pressure  
Sea Level Pressure 30.30 in    
Wind  
Wind Speed 9 mph (NNW)    
Max Wind Speed 20 mph    
Max Gust Speed 26 mph    
Visibility 10 miles    
Events      
T = Trace of Precipitation, MM = Missing Value Source: NWS Daily Summary

Daily Weather History Graph

Daily Weather History Graph

Search for Another Location

Airport:

Trip Planner

Search our weather history database for the weather conditions in past years. The results will help you decide how hot, cold, wet, or windy it might be!

Date:

Astronomy

Aug. 15, 2013 Rise Set
Actual Time 6:12 AM MDT 7:52 PM MDT
Civil Twilight 5:43 AM MDT 8:21 PM MDT
Nautical Twilight 5:09 AM MDT 8:55 PM MDT
Astronomical Twilight 4:32 AM MDT 9:31 PM MDT
Moon 3:11 PM MDT (8/15) 12:24 AM MDT (8/15)
Length of Visible Light 14h 37m
Length of Day
13h 40m
Waxing Gibbous, 65% of the Moon is Illuminated
Aug 15
Waxing Gibbous
Aug 20
Full
Aug 28
Last Quarter
Sep 5
New
Sep 12
First Quarter

Hourly Weather History & Observations

Time (MDT) Temp. Dew Point Humidity Pressure Visibility Wind Dir Wind Speed Gust Speed Precip Events Conditions
12:08 AM 55.8 °F 48.2 °F 76% 30.33 in 10.0 mi West 9.2 mph - N/A   Clear
12:28 AM 55.9 °F 47.8 °F 74% 30.33 in 10.0 mi WNW 9.2 mph - N/A   Clear
12:48 AM 55.2 °F 47.5 °F 75% 30.32 in 10.0 mi WNW 8.1 mph - N/A   Clear
1:08 AM 55.9 °F 47.7 °F 74% 30.32 in 10.0 mi West 8.1 mph - N/A   Clear
1:28 AM 56.3 °F 47.8 °F 73% 30.32 in 10.0 mi WSW 8.1 mph - N/A   Clear
1:48 AM 55.4 °F 48.0 °F 76% 30.32 in 10.0 mi WSW 6.9 mph - N/A   Clear
2:08 AM 54.5 °F 47.7 °F 78% 30.31 in 10.0 mi West 8.1 mph - N/A   Clear
2:28 AM 54.3 °F 47.7 °F 78% 30.31 in 10.0 mi West 8.1 mph - N/A   Clear
2:48 AM 53.6 °F 47.5 °F 80% 30.30 in 10.0 mi West 6.9 mph - N/A   Clear
3:08 AM 54.0 °F 47.5 °F 79% 30.30 in 10.0 mi West 6.9 mph - N/A   Clear
3:28 AM 54.3 °F 47.3 °F 77% 30.29 in 10.0 mi West 5.8 mph - N/A   Clear
3:48 AM 54.0 °F 47.3 °F 78% 30.29 in 10.0 mi West 5.8 mph - N/A   Clear
4:08 AM 52.9 °F 47.3 °F 81% 30.29 in 10.0 mi West 3.5 mph - N/A   Clear
4:28 AM 52.7 °F 47.3 °F 82% 30.29 in 10.0 mi WNW 5.8 mph - N/A   Clear
4:48 AM 53.1 °F 46.9 °F 80% 30.29 in 10.0 mi WNW 3.5 mph - N/A   Clear
5:08 AM 51.8 °F 46.6 °F 82% 30.28 in 10.0 mi WSW 3.5 mph - N/A   Clear
5:28 AM 51.8 °F 47.1 °F 84% 30.28 in 10.0 mi West 6.9 mph - N/A   Clear
5:48 AM 52.7 °F 47.3 °F 82% 30.28 in 10.0 mi WNW 9.2 mph - N/A   Clear
6:08 AM 52.0 °F 46.2 °F 81% 30.28 in 10.0 mi NW 12.7 mph - N/A   Clear
6:28 AM 52.7 °F 45.3 °F 76% 30.28 in 10.0 mi NW 6.9 mph - N/A   Clear
6:48 AM 53.8 °F 46.0 °F 75% 30.28 in 10.0 mi Calm Calm - N/A   Clear
7:08 AM 56.5 °F 46.8 °F 70% 30.29 in 10.0 mi Calm Calm - N/A   Clear
7:28 AM 61.0 °F 47.8 °F 62% 30.29 in 10.0 mi WSW 4.6 mph - N/A   Clear
7:48 AM 64.0 °F 44.8 °F 50% 30.30 in 10.0 mi NW 6.9 mph - N/A   Clear
8:08 AM 66.7 °F 45.0 °F 45% 30.29 in 10.0 mi WNW 9.2 mph - N/A   Clear
8:28 AM 69.3 °F 42.3 °F 38% 30.29 in 10.0 mi WNW 8.1 mph - N/A   Clear
8:48 AM 71.4 °F 41.2 °F 33% 30.29 in 10.0 mi NW 6.9 mph - N/A   Clear
9:08 AM 73.2 °F 40.1 °F 30% 30.29 in 10.0 mi NW 13.8 mph - N/A   Clear
9:28 AM 74.8 °F 40.6 °F 29% 30.29 in 10.0 mi NW 11.5 mph - N/A   Clear
9:48 AM 75.7 °F 37.9 °F 26% 30.29 in 10.0 mi NNW 12.7 mph 18.4 mph N/A   Clear
10:08 AM 76.5 °F 34.5 °F 22% 30.29 in 10.0 mi NNW 13.8 mph 20.7 mph N/A   Clear
10:28 AM 77.5 °F 33.1 °F 20% 30.30 in 10.0 mi NNW 9.2 mph 16.1 mph N/A   Clear
10:48 AM 78.1 °F 33.3 °F 20% 30.30 in 10.0 mi North 9.2 mph 19.6 mph N/A   Clear
11:08 AM 78.4 °F 35.1 °F 21% 30.30 in 10.0 mi North 9.2 mph - N/A   Clear
11:28 AM 78.8 °F 34.5 °F 20% 30.30 in 10.0 mi NNE 13.8 mph 17.3 mph N/A   Clear
11:48 AM 79.0 °F 34.2 °F 20% 30.30 in 10.0 mi North 11.5 mph 17.3 mph N/A   Clear
12:08 PM 78.8 °F 34.3 °F 20% 30.30 in 10.0 mi North 13.8 mph 19.6 mph N/A   Clear
12:28 PM 79.2 °F 34.9 °F 20% 30.29 in 10.0 mi North 10.4 mph 19.6 mph N/A   Clear
12:48 PM 79.5 °F 38.8 °F 23% 30.29 in 10.0 mi NNE 17.3 mph 20.7 mph N/A   Clear
1:08 PM 78.4 °F 43.2 °F 28% 30.29 in 10.0 mi NNE 17.3 mph 23.0 mph N/A   Clear
1:28 PM 78.4 °F 43.5 °F 29% 30.29 in 10.0 mi NNE 15.0 mph 20.7 mph N/A   Clear
1:48 PM 78.6 °F 45.5 °F 31% 30.28 in 10.0 mi NE 19.6 mph 26.5 mph N/A   Clear
2:08 PM 78.1 °F 43.9 °F 30% 30.28 in 10.0 mi NNE 18.4 mph 26.5 mph N/A   Clear
2:28 PM 78.8 °F 43.0 °F 28% 30.28 in 10.0 mi NE 18.4 mph 26.5 mph N/A   Clear
2:48 PM 79.9 °F 39.2 °F 23% 30.27 in 10.0 mi NNE 15.0 mph 24.2 mph N/A   Clear
3:08 PM 80.1 °F 37.9 °F 22% 30.27 in 10.0 mi NNE 15.0 mph 20.7 mph N/A   Clear
3:28 PM 78.8 °F 43.0 °F 28% 30.27 in 10.0 mi NE 18.4 mph - N/A   Clear
3:48 PM 78.4 °F 41.9 °F 27% 30.28 in 10.0 mi ENE 18.4 mph 24.2 mph N/A   Clear
4:08 PM 75.9 °F 42.4 °F 30% 30.28 in 10.0 mi East 9.2 mph 18.4 mph N/A   Scattered Clouds
4:28 PM 78.4 °F 39.4 °F 25% 30.28 in 10.0 mi ENE 9.2 mph 24.2 mph N/A   Scattered Clouds
4:48 PM 78.4 °F 40.6 °F 26% 30.29 in 10.0 mi ENE 10.4 mph 19.6 mph N/A   Clear
5:08 PM 78.4 °F 41.4 °F 27% 30.29 in 10.0 mi NE 12.7 mph 17.3 mph N/A   Clear
5:28 PM 77.5 °F 41.7 °F 28% 30.29 in 10.0 mi NE 12.7 mph - N/A   Clear
5:48 PM 77.0 °F 40.6 °F 27% 30.30 in 10.0 mi ENE 12.7 mph 17.3 mph N/A   Clear
6:08 PM 75.9 °F 41.4 °F 29% 30.30 in 10.0 mi NE 13.8 mph - N/A   Clear
6:28 PM 74.8 °F 42.1 °F 31% 30.30 in 10.0 mi NE 5.8 mph - N/A   Clear
6:48 PM 72.9 °F 44.1 °F 36% 30.30 in 10.0 mi ENE 4.6 mph - N/A   Clear
7:08 PM 71.4 °F 47.3 °F 42% 30.31 in 10.0 mi Calm Calm - N/A   Clear
7:28 PM 70.0 °F 46.4 °F 43% 30.32 in 10.0 mi NE 4.6 mph - N/A   Clear
7:48 PM 68.5 °F 49.6 °F 51% 30.32 in 10.0 mi NE 6.9 mph - N/A   Clear
8:08 PM 66.9 °F 46.6 °F 48% 30.33 in 10.0 mi Calm Calm - N/A   Clear
8:28 PM 64.4 °F 47.3 °F 54% 30.34 in 10.0 mi Calm Calm - N/A   Clear
8:48 PM 63.1 °F 48.2 °F 58% 30.34 in 10.0 mi Calm Calm - N/A   Clear
9:08 PM 62.1 °F 47.8 °F 60% 30.35 in 10.0 mi NNE 6.9 mph - N/A   Clear
9:28 PM 61.9 °F 46.4 °F 57% 30.36 in 10.0 mi North 4.6 mph - N/A   Clear
9:48 PM 62.8 °F 44.8 °F 52% 30.36 in 10.0 mi North 3.5 mph - N/A   Clear
10:08 PM 62.2 °F 45.7 °F 55% 30.36 in 10.0 mi North 4.6 mph - N/A   Clear
10:28 PM 60.6 °F 47.3 °F 61% 30.36 in 10.0 mi North 5.8 mph - N/A   Clear
10:48 PM 61.2 °F 48.4 °F 63% 30.36 in 10.0 mi North 5.8 mph - N/A   Clear
11:08 PM 61.0 °F 49.3 °F 65% 30.36 in 10.0 mi North 4.6 mph - N/A   Clear
11:28 PM 60.3 °F 50.2 °F 69% 30.36 in 10.0 mi North 6.9 mph - N/A   Clear
11:48 PM 59.2 °F 50.5 °F 73% 30.36 in 10.0 mi NNE 3.5 mph - N/A   Clear